This demonstration page uses our WeatherBlox Daily Observations layout. Learn more.

Left ArrowRight Arrow

39.01783, -85.05884

Hourly Observations for March 3, 2022

Temp ( °F °C ) Dew Point ( °F °C ) Humidity (%) Winds ( mph kmh ) Pressure ( in mb ) Visibility ( mi km ) Precip ( " mm )
12:52 am 00:52 Cloudy 61 16.1 40 4.4 46 46 NNW 13 20 29.95 1014 10 16 0.00 0.00
1:52 am 01:52 Cloudy 57 13.9 42 5.6 58 58 N 12 19 29.98 1015 10 16 0.00 0.00
2:52 am 02:52 Mostly Cloudy 49 9.4 39 3.9 69 69 N 18 30 30.02 1017 10 16 0.00 0.00
3:52 am 03:52 Mostly Cloudy 46 7.8 38 3.3 73 73 N 13 20 30.05 1018 10 16 0.00 0.00
4:52 am 04:52 Mostly Cloudy 43 6.1 37 2.8 80 80 N 13 20 30.08 1019 10 16 0.00 0.00
5:52 am 05:52 Mostly Cloudy 41 5 37 2.8 86 86 N 10 17 30.11 1020 10 16 0.00 0.00
6:19 am 06:19 Partly Cloudy 40 4.4 36 2.2 86 86 N 9 15 30.16 1021 8 13 0.00 0.00
6:52 am 06:52 Mostly Clear 40 4.4 34 1.1 79 79 NE 12 19 30.13 1020 10 16 0.00 0.00
7:14 am 07:14 Mostly Cloudy 39 3.9 34 1.1 82 82 N 15 24 30.19 1022 9 14 0.00 0.00
7:52 am 07:52 Cloudy 39 3.9 33 0.6 79 79 NNE 13 20 30.17 1022 7 11 0.00 0.00
8:52 am 08:52 Cloudy 40 4.4 33 0.6 77 77 NNE 13 20 30.22 1023 7 11 0.00 0.00
9:52 am 09:52 Cloudy 41 5 33 0.6 73 73 N 12 19 30.25 1024 7 11 0.00 0.00
10:52 am 10:52 Cloudy with Haze 41 5 32 0 70 70 NNE 12 19 30.27 1025 6 10 0.00 0.00
11:52 am 11:52 Cloudy with Haze 40 4.4 32 0 73 73 N 10 17 30.31 1026 6 10 0.00 0.00
12:52 pm 12:52 Cloudy 41 5 32 0 70 70 NNE 8 13 30.29 1026 7 11 0.00 0.00
1:52 pm 13:52 Mostly Cloudy 43 6.1 30 -1.1 60 60 NNE 14 22 30.30 1026 8 13 0.00 0.00
2:11 pm 14:11 Cloudy 42 5.6 30 -1.1 62 62 N 9 15 30.33 1027 9 14 0.00 0.00
2:52 pm 14:52 Mostly Cloudy 43 6.1 28 -2.2 56 56 N 9 15 30.29 1026 10 16 0.00 0.00
3:52 pm 15:52 Partly Cloudy 45 7.2 27 -2.8 49 49 NNE 12 19 30.32 1027 10 16 0.00 0.00
4:52 pm 16:52 Cloudy 41 5 21 -6.1 45 45 NE 12 19 30.32 1027 10 16 0.00 0.00
5:52 pm 17:52 Mostly Cloudy 40 4.4 22 -5.6 49 49 NE 10 17 30.34 1028 10 16 0.00 0.00
6:52 pm 18:52 Cloudy 40 4.4 21 -6.1 47 47 N 8 13 30.36 1028 10 16 0.00 0.00
7:52 pm 19:52 Cloudy 39 3.9 17 -8.3 41 41 NE 10 17 30.37 1028 10 16 0.00 0.00
8:52 pm 20:52 Mostly Cloudy 38 3.3 18 -7.8 44 44 NE 12 19 30.37 1029 10 16 0.00 0.00
9:52 pm 21:52 Cloudy 37 2.8 18 -7.8 46 46 NE 12 19 30.38 1029 10 16 0.00 0.00
10:52 pm 22:52 Mostly Cloudy 37 2.8 19 -7.2 48 48 ENE 12 19 30.39 1029 10 16 0.00 0.00
11:52 pm 23:52 Partly Cloudy 36 2.2 20 -6.7 52 52 ENE 13 20 30.39 1029 10 16 0.00 0.00

Powered by AerisWeather